Weather History for KELN - October, 2011

Change the Weather History Date:

Monday, October 31, 2011

  Actual Average (KYKM) Record (KYKM)
Temperature  
Mean Temperature 46 °F 43 °F  
Max Temperature 55 °F 56 °F 74 °F (1967)
Min Temperature 37 °F 30 °F 4 °F (2002)
Degree Days  
Heating Degree Days 18 22  
Month to date heating degree days 496  
Since 1 July heating degree days 704  
Cooling Degree Days 0 0  
Month to date cooling degree days 0  
Year to date cooling degree days 472  
Moisture  
Dew Point 31 °F    
Average Humidity 56    
Maximum Humidity 66    
Minimum Humidity 40    
Precipitation  
Precipitation 0.00 in 0.03 in 0.70 in (1973)
Month to date precipitation 0.54  
Year to date precipitation 5.67  
Snow  
Snow 0.00 in 0.00 in 2.40 in (1973)
Month to date snowfall 0.1  
Year to date snowfall 8.7  
Since 1 July snowfall 0.1  
Snow Depth -    
Sea Level Pressure  
Sea Level Pressure 30.23 in    
Wind  
Wind Speed 19 mph (WNW)    
Max Wind Speed 32 mph    
Max Gust Speed 38 mph    
Visibility 6 miles    
Events Rain , Snow    
T = Trace of Precipitation, MM = Missing Value Source: NWS Daily Summary

Daily Weather History Graph

Daily Weather History Graph

Search for Another Location

Airport or City:

Trip Planner

Search our weather history database for the weather conditions in past years. The results will help you decide how hot, cold, wet, or windy it might be!

Date:

Astronomy

Oct. 31, 2011 Rise Set
Actual Time 7:43 AM PDT 5:47 PM PDT
Civil Twilight 7:11 AM PDT 6:19 PM PDT
Nautical Twilight 6:35 AM PDT 6:55 PM PDT
Astronomical Twilight 6:00 AM PDT 7:30 PM PDT
Moon 1:02 PM PDT (10/31) 10:22 PM PDT (10/31)
Length of Visible Light 11h 07m
Length of Day
10h 04m
Waxing Crescent, 31% of the Moon is Illuminated
Oct 31
Waxing Crescent
Nov 2
First Quarter
Nov 10
Full
Nov 18
Last Quarter
Nov 24
New

Hourly Weather History & Observations

Time (PDT) Temp. Windchill Dew Point Humidity Pressure Visibility Wind Dir Wind Speed Gust Speed Precip Events Conditions
12:53 AM 48.9 °F - 36.0 °F 61% 30.07 in 3.0 mi NW 28.8 mph 36.8 mph N/A   Haze
1:53 AM 46.9 °F - 32.0 °F 56% 30.11 in 10.0 mi NW 32.2 mph 38.0 mph 0.00 in Rain Light Rain
2:53 AM 45.0 °F 37.6 °F 30.9 °F 58% 30.14 in 3.0 mi WNW 17.3 mph 26.5 mph 0.00 in   Haze
3:13 AM 44.6 °F 38.4 °F 30.2 °F 57% 30.13 in 2.5 mi WNW 12.7 mph - N/A   Haze
3:28 AM 44.6 °F 40.7 °F 30.2 °F 57% 30.13 in 3.0 mi NW 6.9 mph - N/A   Haze
3:53 AM 44.1 °F 39.5 °F 30.9 °F 60% 30.15 in 10.0 mi NNW 8.1 mph - N/A   Overcast
4:53 AM 44.1 °F 36.5 °F 32.0 °F 63% 30.16 in 5.0 mi NW 17.3 mph - N/A   Haze
5:53 AM 44.1 °F 35.7 °F 32.0 °F 63% 30.17 in 4.0 mi NW 20.7 mph 26.5 mph N/A   Haze
6:53 AM 44.1 °F 37.1 °F 33.1 °F 65% 30.19 in 4.0 mi WNW 15.0 mph 24.2 mph N/A   Haze
7:42 AM 44.6 °F 38.1 °F 33.8 °F 66% 30.19 in 2.5 mi WNW 13.8 mph - N/A   Haze
7:50 AM 44.6 °F 37.2 °F 33.8 °F 66% 30.19 in 3.0 mi WNW 17.3 mph 23.0 mph N/A   Haze
7:53 AM 45.0 °F 38.2 °F 33.1 °F 63% 30.21 in 3.0 mi WNW 15.0 mph 23.0 mph N/A   Haze
8:53 AM 46.9 °F - 34.0 °F 61% 30.23 in 3.0 mi WNW 18.4 mph - N/A   Haze
9:12 AM 46.4 °F 39.5 °F 33.8 °F 62% 30.22 in 2.5 mi WNW 17.3 mph - N/A   Haze
9:53 AM 48.9 °F - 34.0 °F 56% 30.25 in 3.0 mi WNW 20.7 mph 27.6 mph N/A   Haze
10:53 AM 51.1 °F - 34.0 °F 52% 30.27 in 3.0 mi NW 19.6 mph 27.6 mph N/A   Haze
11:53 AM 53.1 °F - 32.0 °F 45% 30.26 in 4.0 mi WNW 26.5 mph 34.5 mph N/A   Haze
12:53 PM 53.1 °F - 30.9 °F 43% 30.26 in 10.0 mi WNW 24.2 mph 32.2 mph N/A   Clear
1:53 PM 54.0 °F - 32.0 °F 43% 30.25 in 10.0 mi WNW 23.0 mph 29.9 mph N/A   Clear
2:53 PM 53.1 °F - 28.9 °F 40% 30.26 in 10.0 mi WNW 18.4 mph 28.8 mph N/A   Clear
3:53 PM 51.1 °F - 30.0 °F 44% 30.26 in 10.0 mi West 20.7 mph 31.1 mph N/A   Clear
4:53 PM 50.0 °F - 28.9 °F 44% 30.26 in 10.0 mi WNW 19.6 mph 29.9 mph N/A   Clear
5:53 PM 45.0 °F 40.6 °F 30.9 °F 58% 30.28 in 10.0 mi WNW 8.1 mph - N/A   Clear
7:53 PM 43.0 °F 34.5 °F 28.9 °F 58% 30.30 in 10.0 mi NW 19.6 mph 26.5 mph N/A   Clear
8:53 PM 43.0 °F 35.7 °F 28.9 °F 58% 30.32 in 10.0 mi NW 15.0 mph 26.5 mph N/A   Clear
9:53 PM 43.0 °F 37.7 °F 28.0 °F 56% 30.35 in 10.0 mi NNW 9.2 mph - N/A   Clear
10:53 PM 39.9 °F 33.4 °F 27.0 °F 60% 30.36 in 10.0 mi NW 10.4 mph - N/A   Clear
11:53 PM 37.9 °F 31.5 °F 26.1 °F 62% 30.37 in 10.0 mi WNW 9.2 mph - 0.00 in Snow Light Snow